Regional Weather Roundup
Issued by NWS Charleston, SC

Current Version | Previous Version | Text Only | Print | Product List | Glossary Off
Versions: 1 2 3 4 5 6 7 8 9 10 11 12 13 14 15 16 17 18 19 20 21 22 23 24 25 26 27 28 29 30 31 32 33 34 35 36 37 38 39 40 41 42 43 44 45 46 47 48 49 50

000
ASUS42 KCHS 031012
RWRCHS

REGIONAL WEATHER ROUNDUP
NATIONAL WEATHER SERVICE CHARLESTON SC
600 AM EDT SUN MAY 03 2015

NOTE: "FAIR" INDICATES FEW OR NO CLOUDS BELOW 12,000 FEET WITH NO
SIGNIFICANT WEATHER AND/OR OBSTRUCTIONS TO VISIBILITY.

NOT ALL STATIONS ARE QUALITY CONTROLLED BY THE NATIONAL
WEATHER SERVICE. USE DATA WITH CAUTION...ESPECIALLY
DEWPOINT OBSERVATIONS.

SCZ027-030-031-034>040-042>050-031100-
...SOUTHEAST SOUTH CAROLINA...

CITY           SKY/WX    TMP DP  RH WIND       PRES   REMARKS
N CHARLESTON   CLEAR     56  54  93 CALM      30.12R
WATERFRONT PRK NOT AVBL
MOUNT PLEASANT FAIR      55  54  94 MISG      30.12S FOG
PINOPOLIS      NOT AVBL
MONCKS CORNER  FAIR      52  50  93 CALM      30.12R FOG
SUMMERVILLE    FAIR      52  52 100 CALM      30.13S
BEAUFORT MCAS  CLEAR     55  53  93 CALM      30.12R
BEAUFORT ARPT  FAIR      55  55 100 CALM      30.12R
HILTON HEAD IS NOT AVBL
WALTERBORO     SUNNY     54  50  87 CALM      30.13R
ALLENDALE      FAIR      52  52 100 CALM      30.11S

...SOUTHERN MIDLANDS AND PEE DEE...

CITY           SKY/WX    TMP DP  RH WIND       PRES   REMARKS
GEORGETOWN     NOT AVBL
KINGSTREE      NOT AVBL
ORANGEBURG     CLEAR     51  48  89 CALM      30.12R
BARNWELL       FAIR      52  50  93 CALM      30.12S
AIKEN          FAIR      48  45  87 CALM      30.15R
MANNING        LGT SNOW  45  37  76 CALM      30.12R
COLUMBIA       CLEAR     50  46  86 W6        30.12R
SUMTER         CLEAR     49  45  86 NE3       30.11R
FLORENCE       CLEAR     51  49  92 CALM      30.12R
MYRTLE BEACH   CLEAR     55  52  88 CALM      30.14S
N MYRTLE BEACH FOG       54  53  97 SW7       30.12S VSB 1/4

$$

GAZ063-065-086>088-099>101-113>116-118-119-134>141-150-031100-
...SOUTHEAST GEORGIA...

CITY           SKY/WX    TMP DP  RH WIND       PRES   REMARKS
SAVANNAH ARPT  CLEAR     56  52  86 W3        30.12S
HUNTER AAF     CLEAR     55  54  97 W2        30.09S
FORT STEWART   CLEAR     54  52  93 CALM      30.10S
STATESBORO       N/A     52  52 100 CALM      30.12R
SYLVANIA       SUNNY     52  52 100 CALM      30.13R
CLAXTON        FAIR      50  50 100 CALM      30.13R

...CSRA...CENTRAL AND FAR SOUTHEAST GEORGIA...

CITY           SKY/WX    TMP DP  RH WIND       PRES   REMARKS
THOMSON        CLEAR     50  50 100 CALM      30.16R
AUGUSTA-BUSH   FOG       46  45  96 CALM      30.12R VSB 1/4
AUGUSTA-DANIEL CLEAR     57  50  77 CALM      30.12R
SWAINSBORO     NOT AVBL
VIDALIA        CLEAR     55  54  94 CALM      30.12S
EASTMAN          N/A     51  51 100 CALM      30.15R FOG
HAZLEHURST     FAIR      59  54  83 S3        30.11R
ALMA           CLEAR     52  50  93 CALM      30.12R
WAYCROSS       CLEAR     55  53  94 CALM      30.12S
JESUP          FAIR      50  50 100 CALM      30.13R
BAXLEY         FAIR      54  54 100 CALM      30.12S
BRUNSWICK      CLEAR     52  50  93 CALM      30.13R
SAINT SIMONS   CLEAR     57  55  93 CALM      30.12R

$$

SCZ027-028-034-036>038-045-046-048>050-GAZ119-141-031100-
...LAKE AND SUPPLEMENTAL COASTAL OBSERVATIONS...

STATION/POSITION TIME  TEMP    WIND        PRES    WAVE   SWELL
                       AIR SEA DIR/SP/G            HT/PER HT/PER/DIR
                 (UTC) (F)     (DEG/KT/KT) (MB)    (FT/S) (FT/S/D)
UPR LAKE MARION  NOT AVBL
WINYAH BAY       0845   58     290/  1     1019.0
LAKE MURRAY      0900   58      CALM  /  1 1019.0R
ACE BASIN NERRS  NOT AVBL
FORT PULASKI     0900   62 68  260/  4/  5 1020.1R
SAPELO ISLAND    0900   56        CALM     1020.0R

$$

ANZ835-935-AMZ111-154-330-350-352-354-370-450-454-472-031100-
...C-MAN AND BUOY OBSERVATIONS...

STATION/POSITION TIME  TEMP    WIND        PRES    WAVE   SWELL
                       AIR SEA DIR/SP/G            HT/PER HT/PER/DIR
                 (UTC) (F)     (DEG/KT/KT) (MB)    (FT/S) (FT/S/D)
BUOY 41004       0950   70 72  270/  6/  8 1019.6R   3/11   3/11
BUOY 41008       0950   69 69  230/  8/  8 1019.8S   3/14   3/ 90/14
FOLLY BEACH CMAN 1000   61     290/  2/  2 1020.0R
CAPERS NEARSHORE 0908   66     290/  6/ 10 1019.6R
FRIPP NEARSHORE  0900   67     260/  8/ 10 1019.2R


STATION/POSITION TIME  TEMP    WIND        PRES    WAVE   SWELL
                       AIR SEA DIR/SP/G            HT/PER HT/PER/DIR
                 (UTC) (F)     (DEG/KT/KT) (MB)    (FT/S) (FT/S/D)
5E ST. MARYS GA  0921      71                N/A     3/14   2/ 80/14
FRYING PAN BUOY  0950   69 70  270/  4/  8 1020.6R   3/ 9   3/ 70/ 9
BUOY 41025       0950   57     300/  6/  6 1019.5R   5/11   5/ 70/11
CAPE LOOKOUT NC  1000   60     260/  4/  4 1019.6R
BUOY 41002       0950   65 69  350/ 16/ 19 1019.2R   9/11   7/ 10/11
BUOY 41010       0920   72 78   40/ 12/ 14 1019.2R
ST AUGUSTINE FL  1000   70 70  120/  5/  6 1020.5R


$$


USA.gov is the U.S. government's official web portal to all federal, state and local government web resources and services.